Location: Casteau
(50.5142°N, 4.0161°E)
Time: 06:10:36
(UTC+00:00)

Transit 2A - Pass Details

Date: 01 August 2021
Orbit: 594 x 964 km, 66.7° (Epoch: 24 September)

Event Time Altitude Azimuth Distance (km) Brightness Sun altitude
Rises 15:36:51 0° 314° (NW) 3,256 9.6 34.7°
Reaches altitude 10° 15:39:33 10° 301° (WNW) 2,388 9.3 34.3°
Maximum altitude 15:43:56 25° 249° (WSW) 1,665 10.1 33.6°
Drops below altitude 10° 15:48:37 10° 197° (SSW) 2,564 9.2 32.9°
Sets 15:51:38 0° 184° (S) 3,549 9.6 32.4°
